カタログに戻る

COSMOS 2251 DEB

運用中LEO
NORAD 34857·DEBRIS·🇷🇺 Russia

打ち上げ Jun 16, 1993 から Plesetsk Cosmodrome

Loading…

次のパス (今後24時間)

TLE

最新Source: Space-Track

元期: Sep 14, 2026, 13:49 UTC

1 34857U 93036ACB 26257.57583334  .00001752  00000-0  35532-3 0  9994
2 34857  74.0130 299.7758 0064857 353.1810 158.3532 14.60696511919265

AllMySatでCOSMOS 2251 DEBをリアルタイム追跡

Download on the App Store